| time (UTC) | temp C | wind direction | speed KPH | gust KPH | rain 1hr cm | rain 24hr cm | rain mn cm | humidity % | barometer mb |
| 20260502123028 | 13 | 360 | 20.9 | 0.0 | 0.00 | 0.00 | 0.00 | 82 | 1014.1 |
| 20260502121531 | 13 | 360 | 20.9 | 0.0 | 0.00 | 0.00 | 0.00 | 81 | 1014.1 |
| 20260502114524 | 13 | 360 | 22.5 | 0.0 | 0.00 | 0.00 | 0.00 | 82 | 1014.4 |
| 20260502113026 | 13 | 360 | 22.5 | 0.0 | 0.00 | 0.00 | 0.00 | 83 | 1014.7 |
| 20260502111522 | 13 | 168 | 22.5 | 0.0 | 0.00 | 0.00 | 0.00 | 83 | 1014.8 |
| 20260502110020 | 13 | 161 | 22.5 | 0.0 | 0.00 | 0.00 | 0.00 | 83 | 1015.0 |
| 20260502104525 | 13 | 184 | 22.5 | 0.0 | 0.00 | 0.00 | 0.00 | 82 | 1015.0 |
| 20260502103018 | 13 | 186 | 24.1 | 0.0 | 0.00 | 0.00 | 0.00 | 82 | 1015.2 |
| 20260502101515 | 13 | 360 | 22.5 | 0.0 | 0.00 | 0.00 | 0.00 | 82 | 1015.4 |
| 20260502091515 | 12 | 180 | 20.9 | 0.0 | 0.00 | 0.00 | 0.00 | 83 | 1016.0 |
| 20260502070116 | 12 | 150 | 19.3 | 0.0 | 0.00 | 0.00 | 0.00 | 84 | 1016.5 |
| 20260502064557 | 12 | 173 | 19.3 | 0.0 | 0.00 | 0.00 | 0.00 | 84 | 1016.6 |
| 20260502063111 | 12 | 159 | 20.9 | 0.0 | 0.00 | 0.00 | 0.00 | 83 | 1016.6 |
| 20260502061554 | 12 | 159 | 20.9 | 0.0 | 0.00 | 0.00 | 0.00 | 82 | 1016.8 |
| 20260502060056 | 12 | 170 | 19.3 | 0.0 | 0.00 | 0.00 | 0.00 | 82 | 1016.9 |
| 20260502054602 | 12 | 166 | 19.3 | 0.0 | 0.00 | 0.00 | 0.00 | 82 | 1017.0 |
| 20260502053047 | 11 | 144 | 20.9 | 0.0 | 0.00 | 0.00 | 0.00 | 81 | 1017.1 |
| 20260502051548 | 11 | 360 | 20.9 | 0.0 | 0.00 | 0.00 | 0.00 | 81 | 1017.1 |
| 20260502050043 | 11 | 166 | 17.7 | 0.0 | 0.00 | 0.00 | 0.00 | 81 | 1017.4 |
| 20260502044542 | 10 | 169 | 16.1 | 0.0 | 0.00 | 0.00 | 0.00 | 80 | 1017.4 |
| 20260502043051 | 10 | 155 | 16.1 | 0.0 | 0.00 | 0.00 | 0.00 | 81 | 1017.5 |
| 20260502041605 | 10 | 154 | 12.9 | 0.0 | 0.00 | 0.00 | 0.00 | 82 | 1017.7 |
| 20260502040050 | 10 | 146 | 12.9 | 0.0 | 0.00 | 0.00 | 0.00 | 84 | 1017.7 |
| 20260502034544 | 10 | 153 | 16.1 | 0.0 | 0.00 | 0.00 | 0.00 | 85 | 1017.8 |
| 20260502033034 | -17 | 0.0 | 0.0 | 0.00 | 0.00 | 0.00 | 1018.2 | ||
| 20260502031529 | -17 | 0.0 | 0.0 | 0.00 | 0.00 | 0.00 | 1018.5 | ||
| 20260502030030 | -17 | 0.0 | 0.0 | 0.00 | 0.00 | 0.00 | 1018.9 | ||
| 20260502024520 | -17 | 0.0 | 0.0 | 0.00 | 0.00 | 0.00 | 1018.9 | ||
| 20260502023027 | 10 | 149 | 17.7 | 0.0 | 0.00 | 0.00 | 0.00 | 85 | 1019.0 |
| 20260502021514 | 10 | 155 | 12.9 | 0.0 | 0.00 | 0.00 | 0.00 | 85 | 1019.2 |
| 20260502020013 | 10 | 162 | 11.3 | 0.0 | 0.00 | 0.00 | 0.00 | 85 | 1019.5 |
| 20260502014511 | 10 | 158 | 11.3 | 0.0 | 0.00 | 0.00 | 0.00 | 85 | 1019.7 |
| 20260502013009 | 10 | 159 | 12.9 | 0.0 | 0.00 | 0.00 | 0.00 | 86 | 1019.8 |
| 20260502011507 | 10 | 161 | 11.3 | 0.0 | 0.00 | 0.00 | 0.00 | 85 | 1020.0 |
| 20260502010005 | 10 | 151 | 11.3 | 0.0 | 0.00 | 0.00 | 0.00 | 85 | 1020.1 |
| 20260502004503 | 10 | 130 | 11.3 | 0.0 | 0.00 | 0.00 | 0.00 | 85 | 1020.4 |
| 20260502003001 | 10 | 152 | 12.9 | 0.0 | 0.00 | 0.00 | 0.00 | 84 | 1020.5 |
| 20260502001605 | 11 | 158 | 12.9 | 0.0 | 0.00 | 0.00 | 0.00 | 83 | 1020.6 |
| 20260502000108 | 11 | 149 | 14.5 | 0.0 | 0.00 | 0.00 | 0.00 | 82 | 1020.6 |
| 20260501234554 | 11 | 155 | 16.1 | 0.0 | 0.00 | 0.00 | 0.00 | 82 | 1020.7 |
| 20260501233109 | 11 | 156 | 14.5 | 0.0 | 0.00 | 0.00 | 0.00 | 80 | 1020.8 |
| 20260501231611 | 11 | 153 | 14.5 | 0.0 | 0.00 | 0.00 | 0.00 | 79 | 1021.0 |
| 20260501230114 | 11 | 177 | 12.9 | 0.0 | 0.00 | 0.00 | 0.00 | 77 | 1021.3 |
| 20260501224556 | 11 | 169 | 12.9 | 0.0 | 0.00 | 0.00 | 0.00 | 75 | 1021.4 |
| 20260501223052 | 11 | 163 | 14.5 | 0.0 | 0.00 | 0.00 | 0.00 | 73 | 1021.4 |
| 20260501221549 | 12 | 163 | 14.5 | 0.0 | 0.00 | 0.00 | 0.00 | 71 | 1021.6 |
| 20260501220044 | 12 | 153 | 14.5 | 0.0 | 0.00 | 0.00 | 0.00 | 70 | 1021.4 |
| 20260501214543 | 12 | 360 | 12.9 | 0.0 | 0.00 | 0.00 | 0.00 | 69 | 1021.5 |
| 20260501213041 | 12 | 158 | 11.3 | 0.0 | 0.00 | 0.00 | 0.00 | 68 | 1021.7 |
| 20260501211540 | 12 | 147 | 14.5 | 0.0 | 0.00 | 0.00 | 0.00 | 67 | 1021.9 |
| 20260501210040 | 12 | 161 | 14.5 | 0.0 | 0.00 | 0.00 | 0.00 | 69 | 1022.0 |
| 20260501204543 | 12 | 156 | 14.5 | 0.0 | 0.00 | 0.00 | 0.00 | 71 | 1022.1 |
| 20260501203039 | 12 | 159 | 11.3 | 0.0 | 0.00 | 0.00 | 0.00 | 71 | 1022.3 |
| 20260501201538 | 12 | 150 | 8.0 | 0.0 | 0.00 | 0.00 | 0.00 | 71 | 1022.4 |
| 20260501200035 | 12 | 155 | 9.7 | 0.0 | 0.00 | 0.00 | 0.00 | 70 | 1022.5 |
| 20260501194533 | 12 | 151 | 9.7 | 0.0 | 0.00 | 0.00 | 0.00 | 70 | 1022.6 |
| 20260501193037 | 12 | 151 | 11.3 | 0.0 | 0.00 | 0.00 | 0.00 | 72 | 1022.8 |
| 20260501191533 | 12 | 147 | 9.7 | 0.0 | 0.00 | 0.00 | 0.00 | 72 | 1023.0 |
| 20260501190032 | 12 | 142 | 8.0 | 0.0 | 0.00 | 0.00 | 0.00 | 71 | 1023.1 |
| 20260501184530 | 12 | 138 | 4.8 | 0.0 | 0.00 | 0.00 | 0.00 | 72 | 1023.2 |
| 20260501183029 | 12 | 109 | 4.8 | 0.0 | 0.00 | 0.00 | 0.00 | 78 | 1023.2 |
| 20260501181527 | 12 | 159 | 6.4 | 0.0 | 0.00 | 0.00 | 0.00 | 81 | 1023.2 |
| 20260501180027 | 12 | 159 | 11.3 | 0.0 | 0.00 | 0.00 | 0.00 | 82 | 1023.3 |
| 20260501174526 | 12 | 167 | 11.3 | 0.0 | 0.00 | 0.00 | 0.00 | 84 | 1023.3 |
| 20260501173026 | 12 | 165 | 9.7 | 0.0 | 0.00 | 0.00 | 0.00 | 84 | 1023.5 |
| 20260501171525 | 12 | 173 | 9.7 | 0.0 | 0.00 | 0.00 | 0.00 | 84 | 1023.6 |
| 20260501170022 | 12 | 184 | 11.3 | 0.0 | 0.00 | 0.00 | 0.00 | 85 | 1023.8 |
| 20260501164521 | 12 | 177 | 9.7 | 0.0 | 0.00 | 0.00 | 0.00 | 85 | 1023.8 |
| 20260501163020 | 12 | 183 | 11.3 | 0.0 | 0.00 | 0.00 | 0.00 | 84 | 1023.9 |
| 20260501161518 | 12 | 175 | 8.0 | 0.0 | 0.00 | 0.00 | 0.00 | 83 | 1024.1 |
| 20260501160016 | 12 | 182 | 8.0 | 0.0 | 0.00 | 0.00 | 0.00 | 80 | 1024.4 |
| 20260501154515 | 12 | 175 | 6.4 | 0.0 | 0.00 | 0.00 | 0.00 | 79 | 1024.5 |
| 20260501153013 | 12 | 177 | 6.4 | 0.0 | 0.00 | 0.00 | 0.00 | 79 | 1024.9 |
| 20260501151512 | 12 | 172 | 6.4 | 0.0 | 0.00 | 0.00 | 0.00 | 79 | 1025.1 |